SL-16 DEB, 22341

Orbit data source: Space-Track

SL-16 DEB, 22341 is space debris in LEO originally from a launch on Fri, 25 Dec 1992 UTC launched from the Tyuratam Missile And Space Complex (TTMTR). Debris objects in space refer to the collection of defunct objects orbiting the Earth. Examples of debris include non-operational satellites, rocket bodies, and fragments generated from explosions, collisions, or faulty payload assembly.

Loading next visibility...
Identifier
22341, 1992-093AE
Orbit
LEO
Country
Flag of CISCIS
Related business
Manufacturer
Unknown
Mission
Spacecraft
Bus & Motor
Unknown
Mass
Unknown
Launch date (UTC)
1992-12-25 (33 years ago)
Launch vehicle
Unknown
Launch site
Tyuratam Missile And Space Complex (TTMTR)
Object type
Payload
Rocket body
Debris
Shape & HBR
Unknown shape, 0.1 m
Radar Cross Section
Small (<0.1 m²)

Expand to show TLE details & history
Last TLE update: 13 hours ago

TLE from 13 hours ago
0 SL-16 DEB
1 22341U 92093AE  25351.75265993  .00000496  00000-0  37367-3 0  9995
2 22341  70.7446 125.0167 0142522 267.5360 219.9900 13.94620122672408
Epoch: 2025-12-17T18:03Z
TLE epoch observation values (Epoch: 2025-12-17T18:03:49.817Z)
Latitude
49.48188°
Longitude
-76.55204°
Altitude
999.979 km
Speed
7.316 km/s
True Right ascension
18h 44m 05s
True Declination
49° 19' 03"
Sunlit
Object was in daylight at epoch
Visualization orbit readout
Latitude
Unknown
Longitude
Unknown
Altitude
Unknown
Speed
Unknown
Apparent Right ascension
Unknown
Apparent Declination
Unknown
Sunlit
N/A
Visualization observer readout
Local Sidereal Time
05:30:10
Azimuth
Unknown
Elevation
Unknown
Doppler factor
Unknown
Orbital elements
Apogee altitude
1,014.332 km
Perigee altitude
806.575 km
Semi-major axis
7,288.591 km
Eccentricity
0.01425
Inclination
70.7446°
RAAN
125.0167°
Arg. of periapsis
267.536°
True anomaly
218.95463°
Mean anomaly
219.99°
Eccentric anomaly
219.4709°
Mean motion
3.48801 °/min
Orbital period
103.21 mins
BSTAR
0.00037367
Loading maneuver chart data...
Computing Atmospheric mass density...
Loading historical data...
Loading historical data...
Loading historical data...
Loading historical data...
Loading historical data...
Loading historical data...
Loading historical data...

Documentation

Showing up to 5 results
|